(514665) = 2005 UZ93 = 2016 UH60

Discovered at Kitt Peak on 2005-10-22 by Spacewatch.

Orbit

Orbit type: Main Belt

Note: WebGL enabled browser required.

epoch2024-03-31.0
epoch JD2460400.5
perihelion date2023-03-08.39819
perihelion JD2460011.89819
argument of perihelion (°)124.25282
ascending node (°)333.53528
inclination (°)4.35132
eccentricity0.1050270
perihelion distance (AU)2.8071612
Tisserand w.r.t. Jupiter3.2
ΔV w.r.t. Earth (km/sec)10.5
semimajor axis (AU)3.1365876
mean anomaly (°)68.94813
mean daily motion (°/day)0.17742620
aphelion distance (AU)3.466
period (years)5.56
P-vector [x]-0.13657168
P-vector [y]0.88211666
P-vector [z]0.45079748
Q-vector [x]-0.99005299
Q-vector [y]-0.10600870
Q-vector [z]-0.09250530
absolute magnitude17.11
phase slope0.15
uncertainty0
referenceMPEC 2024-E144
observations used94
oppositions11
arc length (days)6714
first opposition used2005
last opposition used2024
residual rms (arc-secs)0.53
perturbers coarse indicatorM-v
perturbers precise indicator003Ek
first observation date used2005-10-22.0
last observation date used2024-03-10.0
computer nameMPCLINUX
Minimum Orbit Intersection Distances (in AU)
for orbit epoch: 2460400.5, reference: E2024-G17
Mercury2.49491
Venus2.08872
Earth1.82743
Mars1.19261
Jupiter1.67678
Saturn6.2467
Uranus15.3925
Neptune26.7128

Observations

94 total observations over interval: 2005 10 22.23623 – 2024 03 10.23891
These data are available for download (format description).

Date (UT) J2000 RA J2000 Dec Magn Location Ref
2005 10 22.23623 02 59 43.70 +23 20 03.7 21.4 V 691 – Steward Observatory, Kitt Peak-Spacewatch MPS 147914
2005 10 22.25349 02 59 42.91 +23 20 02.4 21.4 V 691 – Steward Observatory, Kitt Peak-Spacewatch MPS 147914
2005 10 22.27084 02 59 42.16 +23 20 00.1 21.0 V 691 – Steward Observatory, Kitt Peak-Spacewatch MPS 147914
2005 10 27.48292 02 55 37.24 +23 10 22.8 21.1 V 691 – Steward Observatory, Kitt Peak-Spacewatch MPS 147914
2005 10 27.50032 02 55 36.36 +23 10 20.6 20.9 V 691 – Steward Observatory, Kitt Peak-Spacewatch MPS 147914
2005 10 27.51757 02 55 35.58 +23 10 18.5 20.8 V 691 – Steward Observatory, Kitt Peak-Spacewatch MPS 147914
2005 10 31.22905 02 52 30.62 +23 01 32.0 21.2 V 691 – Steward Observatory, Kitt Peak-Spacewatch MPS 147914
2005 10 31.24641 02 52 29.72 +23 01 29.8 21.6 V 691 – Steward Observatory, Kitt Peak-Spacewatch MPS 147914
2005 10 31.26374 02 52 28.79 +23 01 26.7 21.2 V 691 – Steward Observatory, Kitt Peak-Spacewatch MPS 147914
2005 11 04.23102 02 49 04.33 +22 50 28.3 21.0 V 691 – Steward Observatory, Kitt Peak-Spacewatch MPS 149766
2005 11 04.25602 02 49 02.96 +22 50 22.9 20.9 V 691 – Steward Observatory, Kitt Peak-Spacewatch MPS 149766
2005 11 04.28096 02 49 01.62 +22 50 19.1 21.2 V 691 – Steward Observatory, Kitt Peak-Spacewatch MPS 149766
2010 09 15.39744 23 54 05.65 +02 05 28.2 21.5 V G96 – Mt. Lemmon Survey MPS 879876
2010 09 15.40457 23 54 05.36 +02 05 26.5 22.6 V G96 – Mt. Lemmon Survey MPS 879876
2010 09 15.41164 23 54 05.00 +02 05 25.4 22.0 V G96 – Mt. Lemmon Survey MPS 879876
2010 09 15.41877 23 54 04.68 +02 05 23.3 21.6 V G96 – Mt. Lemmon Survey MPS 879876
2010 10 03.22786 23 40 38.40 +00 57 56.1 22.1 R I41 – Palomar Mountain--ZTF MPS 1528109
2010 10 03.27661 23 40 36.36 +00 57 45.1 22.6 R I41 – Palomar Mountain--ZTF MPS 1528109
2011 12 26.34501 06 10 54.37 +29 16 40.5 20.2 V G96 – Mt. Lemmon Survey MPS 739791
2011 12 26.36112 06 10 53.43 +29 16 40.4 20.2 V G96 – Mt. Lemmon Survey MPS 739791
2011 12 26.36923 06 10 52.93 +29 16 40.0 20.3 V G96 – Mt. Lemmon Survey MPS 739791
2015 08 11.42377 21 26 09.967 -16 50 20.21 21.7 w F51 – Pan-STARRS 1, Haleakala MPS 879876
2015 08 11.43515 21 26 09.387 -16 50 21.92 21.7 w F51 – Pan-STARRS 1, Haleakala MPS 879876
2015 08 11.44653 21 26 08.844 -16 50 23.94 22.0 w F51 – Pan-STARRS 1, Haleakala MPS 879876
2016 10 02.37385 02 30 36.81 +20 21 35.0 21.2 V G96 – Mt. Lemmon Survey MPS 740100
2016 10 02.38302 02 30 36.45 +20 21 35.1 21.4 V G96 – Mt. Lemmon Survey MPS 740100
2016 10 02.39218 02 30 36.11 +20 21 34.7 21.1 V G96 – Mt. Lemmon Survey MPS 740100
2016 10 02.40143 02 30 35.82 +20 21 34.0 21.7 V G96 – Mt. Lemmon Survey MPS 740100
2016 10 09.39286 02 26 22.11 +20 14 21.9 21.8 V G96 – Mt. Lemmon Survey MPS 740100
2016 10 09.40188 02 26 21.80 +20 14 20.9 20.7 V G96 – Mt. Lemmon Survey MPS 740100
2016 10 09.40751 02 26 21.61 +20 14 20.4 21.9 V G96 – Mt. Lemmon Survey MPS 740100
2016 10 09.41289 02 26 21.33 +20 14 19.9 21.3 V G96 – Mt. Lemmon Survey MPS 740100
2016 10 23.36685 02 15 45.40 +19 42 28.9 20.6 V G96 – Mt. Lemmon Survey MPS 740100
2016 10 23.37374 02 15 45.03 +19 42 27.8 20.6 V G96 – Mt. Lemmon Survey MPS 740100
2016 10 23.38149 02 15 44.65 +19 42 26.7 20.6 V G96 – Mt. Lemmon Survey MPS 740100
2016 10 23.38836 02 15 44.37 +19 42 25.1 21.1 V G96 – Mt. Lemmon Survey MPS 740100
2016 10 25.50197 02 13 58.940 +19 35 49.80 21.0 w F51 – Pan-STARRS 1, Haleakala MPS 740100
2016 10 25.51592 02 13 58.207 +19 35 47.01 21.0 w F51 – Pan-STARRS 1, Haleakala MPS 740100
2016 10 25.52990 02 13 57.494 +19 35 44.22 21.1 w F51 – Pan-STARRS 1, Haleakala MPS 740100
2016 10 27.32431 02 12 27.39 +19 29 48.5 21.7 V G96 – Mt. Lemmon Survey MPS 740100
2016 10 27.32860 02 12 27.18 +19 29 47.4 20.2 V G96 – Mt. Lemmon Survey MPS 740100
2016 10 27.33297 02 12 26.88 +19 29 46.5 20.9 V G96 – Mt. Lemmon Survey MPS 740100
2016 10 27.33726 02 12 26.74 +19 29 45.8 20.9 V G96 – Mt. Lemmon Survey MPS 740100
2018 01 14.33587 09 41 07.59 +16 18 04.4 21.1 G G96 – Mt. Lemmon Survey MPS 879876
2018 01 14.34611 09 41 07.18 +16 18 04.4 21.1 G G96 – Mt. Lemmon Survey MPS 879876
2018 01 14.35122 09 41 07.01 +16 18 06.0 21.3 G G96 – Mt. Lemmon Survey MPS 879876
2018 01 14.56074 09 40 59.226 +16 18 33.70 21.3 w F51 – Pan-STARRS 1, Haleakala MPS 857710
2018 01 14.57304 09 40 58.768 +16 18 35.32 21.5 w F51 – Pan-STARRS 1, Haleakala MPS 857710
2018 01 14.58539 09 40 58.281 +16 18 36.77 21.1 w F51 – Pan-STARRS 1, Haleakala MPS 857710
2018 01 14.59772 09 40 57.807 +16 18 38.38 21.3 w F51 – Pan-STARRS 1, Haleakala MPS 857710
2018 01 24.29554 09 34 12.01 +16 41 45.0 21.0 G G96 – Mt. Lemmon Survey MPS 861732
2018 01 24.30070 09 34 11.80 +16 41 46.1 21.1 G G96 – Mt. Lemmon Survey MPS 861732
2018 01 24.30582 09 34 11.48 +16 41 47.4 21.2 G G96 – Mt. Lemmon Survey MPS 861732
2018 01 24.31096 09 34 11.23 +16 41 48.2 21.8 G G96 – Mt. Lemmon Survey MPS 861732
2018 02 12.35185 09 18 07.044 +17 31 00.53 21.0 w F51 – Pan-STARRS 1, Haleakala MPS 867596
2018 02 12.36510 09 18 06.340 +17 31 02.48 21.1 w F51 – Pan-STARRS 1, Haleakala MPS 867596
2018 02 12.37842 09 18 05.631 +17 31 04.27 21.0 w F51 – Pan-STARRS 1, Haleakala MPS 867596
2018 02 12.39198 09 18 04.920 +17 31 06.31 21.0 w F51 – Pan-STARRS 1, Haleakala MPS 867596
2018 03 08.26315 09 01 16.080 +18 05 28.53 21.5 w F51 – Pan-STARRS 1, Haleakala MPS 872651
2018 03 08.27629 09 01 15.665 +18 05 28.81 21.4 w F51 – Pan-STARRS 1, Haleakala MPS 872651
2018 03 08.28950 09 01 15.264 +18 05 29.01 21.5 w F51 – Pan-STARRS 1, Haleakala MPS 872651
2018 03 08.30265 09 01 14.852 +18 05 29.52 21.5 w F51 – Pan-STARRS 1, Haleakala MPS 872651
2019 05 01.42196 14 19 23.081 -19 55 19.23 21.8 w F51 – Pan-STARRS 1, Haleakala MPS 996433
2019 05 01.43426 14 19 22.465 -19 55 17.17 21.9 w F51 – Pan-STARRS 1, Haleakala MPS 996433
2019 05 01.44654 14 19 21.870 -19 55 14.37 21.7 w F51 – Pan-STARRS 1, Haleakala MPS 996433
2019 05 01.45882 14 19 21.256 -19 55 11.56 21.7 w F51 – Pan-STARRS 1, Haleakala MPS 996433
2020 06 22.43877 19 10 32.771 -27 17 23.76 22.1 w F51 – Pan-STARRS 1, Haleakala MPS 1206848
2020 06 22.44716 19 10 32.376 -27 17 24.30 22.1 w F51 – Pan-STARRS 1, Haleakala MPS 1206848
2020 06 22.45579 19 10 31.944 -27 17 24.96 22.3 w F51 – Pan-STARRS 1, Haleakala MPS 1206848
2021 08 04.492417 23 42 53.324 -00 47 07.61 22.25 w F51 – Pan-STARRS 1, Haleakala MPS 1441422
2021 08 04.504441 23 42 53.096 -00 47 08.04 22.35 w F51 – Pan-STARRS 1, Haleakala MPS 1441422
2021 08 04.516458 23 42 52.862 -00 47 08.43 22.16 w F51 – Pan-STARRS 1, Haleakala MPS 1441422
2021 08 04.528475 23 42 52.636 -00 47 08.92 22.18 w F51 – Pan-STARRS 1, Haleakala MPS 1441422
2021 08 06.497863 23 42 15.519 -00 48 30.78 22.20 w F51 – Pan-STARRS 1, Haleakala MPS 1444622
2021 08 06.510975 23 42 15.216 -00 48 31.32 22.18 w F51 – Pan-STARRS 1, Haleakala MPS 1444622
2021 08 06.524130 23 42 14.953 -00 48 31.87 22.26 w F51 – Pan-STARRS 1, Haleakala MPS 1444622
2021 09 10.259545 23 21 31.55 -02 15 28.9 21.01 G G96 – Mt. Lemmon Survey MPS 1470497
2021 09 10.265181 23 21 31.31 -02 15 30.1 21.20 G G96 – Mt. Lemmon Survey MPS 1470497
2021 09 10.270808 23 21 31.04 -02 15 32.5 22.06 G G96 – Mt. Lemmon Survey MPS 1470497
2021 09 10.277804 23 21 30.74 -02 15 32.9 21.48 G G96 – Mt. Lemmon Survey MPS 1470497
2021 10 04.363928 23 04 20.647 -03 40 14.97 21.90 w F52 – Pan-STARRS 2, Haleakala MPS 1487674
2021 10 04.375326 23 04 20.238 -03 40 17.08 21.81 w F52 – Pan-STARRS 2, Haleakala MPS 1487674
2021 10 04.386749 23 04 19.806 -03 40 19.10 22.21 w F52 – Pan-STARRS 2, Haleakala MPS 1487674
2022 12 23.256412 04 56 54.701 +28 58 27.59 20.79 G G96 – Mt. Lemmon Survey MPS 1732267
2022 12 23.262042 04 56 54.424 +28 58 26.51 21.04 G G96 – Mt. Lemmon Survey MPS 1732267
2022 12 23.267670 04 56 54.096 +28 58 26.04 20.83 G G96 – Mt. Lemmon Survey MPS 1732267
2022 12 23.273287 04 56 53.797 +28 58 24.89 21.01 G G96 – Mt. Lemmon Survey MPS 1732267
2024 03 02.478273 11 50 17.116 -01 16 26.25 21.52 w F51 – Pan-STARRS 1, Haleakala MPS 2152039
2024 03 02.490322 11 50 16.564 -01 16 23.87 21.56 w F51 – Pan-STARRS 1, Haleakala MPS 2152039
2024 03 02.502330 11 50 16.022 -01 16 21.69 21.44 w F51 – Pan-STARRS 1, Haleakala MPS 2152039
2024 03 02.514340 11 50 15.496 -01 16 19.56 21.59 w F51 – Pan-STARRS 1, Haleakala MPS 2152039
2024 03 10.15917 11 44 28.56 -00 50 09.5 20.9 G W76 – CHILESCOPE Observatory, Rio Hurtado MPS 2152039
2024 03 10.20031 11 44 26.61 -00 50 00.7 20.3 G W76 – CHILESCOPE Observatory, Rio Hurtado MPS 2152039
2024 03 10.23891 11 44 24.70 -00 49 51.7 20.3 G W76 – CHILESCOPE Observatory, Rio Hurtado MPS 2152039